USHHUSRR

Guest
Details From USHH - KHANTY MANSIYSK
To USRR - SURGUT
Flight Number -
Tags generated
Created
Modified
Stats Distance 126 nm / 234 km
Max Altitude 23,700 ft / 7,224 m
Waypoints 4
Social Downloads 1
Likes 0
Share VATSIM

Download

Looking for another format? Having issues loading an existing format? Contact us
Advertisement - Login to hide

Notes

Basic altitude profile: - Ascent Rate: 2500ft/min - Ascent Speed: 250kts - Cruise Altitude: 35000ft - Cruise Speed: 420kts - Descent Rate: 1500ft/min - Descent Speed: 250kts Options: - Use NATs: yes - Use PACOTS: yes - Use low airways: yes - Use high airways: yes

Route

USHH ZJ R22 STELA USRR

ID Type Via Altitude Latitude Longitude Leg Dist Tot Dist Heading (true) Name
O USHH APT - 0 ft / 0 m 61.02848˚ 69.08607˚ - 0 nm - KHANTY MANSIYSK
ZJ VOR - 400 ft / 122 m 61.03333˚ 69.12694˚ 1 nm 1 nm 76° / 76° KHANTY-MANSIYSK VOR-DME
STELA FIX R22 (AWY-LO) 23,700 ft / 7,224 m 61.21722˚ 70.93194˚ 53 nm 54 nm 77° / 79° -
O USRR APT - 0 ft / 0 m 61.34369˚ 73.40184˚ 71 nm 126 nm 83° / 85° SURGUT

Altitude Profile

Advertisement - Login to hide

USHH

Details ICAO USHH (HMA)
Name KHANTY MANSIYSK
Region Russia
Timezone Asia/Yekaterinburg (UTC+5.0)
Stats Elevation 141 ft / 43 m (AMSL)
Location 61.028482° 69.086067°
Runways 1
Magnetic Variation 17.799° E

METAR

USHH 250530Z 29003MPS CAVOK 08/M05 Q1012 R24/010060 NOSIG RMK QFE755

Decode

TAF

TAF USHH 250500Z 2506/2606 36003G09MPS 9999 SCT020 TEMPO 2506/2515 27003MPS 4000 -SHRA BKN015CB

Decode

Departure Runways

ID Width Length Bearing (true) Bearing (mag) Surface Threshold Offset Overrun Length
06 148 ft / 45 m 9,154 ft / 2,790 m 75.33° 57.53° Asphalt 0 ft / 0 m 195 ft / 59 m
24 148 ft / 45 m 9,154 ft / 2,790 m 255.38° 237.58° Asphalt 0 ft / 0 m 195 ft / 59 m

USRR

Details ICAO USRR (SGC)
Name SURGUT
Region Russia
Timezone Asia/Yekaterinburg (UTC+5.0)
Stats Elevation 200 ft / 61 m (AMSL)
Location 61.343693° 73.401842°
Runways 1
Magnetic Variation 17.121° E

METAR

USRR 250530Z 31007MPS CAVOK 06/M06 Q1011 R25/CLRD60 NOSIG RMK QFE753

Decode

TAF

TAF TAF USRR 250455Z 2506/2606 32007G14MPS 9999 SCT020

Decode

Destination Runways

ID Width Length Bearing (true) Bearing (mag) Surface Threshold Offset Overrun Length
07 148 ft / 45 m 9,112 ft / 2,778 m 89.72° 72.60° Asphalt 0 ft / 0 m 165 ft / 50 m
25 148 ft / 45 m 9,112 ft / 2,778 m 269.76° 252.64° Asphalt 0 ft / 0 m 165 ft / 50 m

Popular Alternatives